Showing default

GEESAT 1-04, 52788

Orbit data source: Space-Track

GEESAT 1-04, 52788 is a payload satellite owned by GeeSpace (CN) in LEO that was launched on Thu, 02 Jun 2022 UTC via a CHANG ZHENG 2C launch vehicle from the Xichang Space Center, China (XSC). Payload-class satellites include a variety of spacecraft equipped with specific instruments for various scientific and technological missions. These include communications satellites like Starlink; space stations such as the ISS; scientific satellites like the Hubble; Earth observation satellites from companies like Planet Labs, Umbra, and HawkEye 360; GPS; miniature CubeSats for education and research; and military/defense satellites.

Loading next visibility...
Identifier
52788, 2022-058D
Orbit
LEO
Country
Flag of CNCN / PRC
Related business
Manufacturer
GWCG
Mission
Operational Commercial Navigation
Bus & Motor
GPS100, Unknown motor
Mass
130 kg wet, 130 kg dry
Launch date (UTC)
2022-06-02 (4 years ago)
Launch vehicle
CHANG ZHENG 2C
Launch site
Xichang Space Center, China (XSC)
Object type
Payload
Rocket body
Debris
Shape & HBR
Box + 2 Pan, 1.0 m
Radar Cross Section
0.833 m², Medium (>0.1 m² and < 1m²)

Expand to show TLE details & history
Last TLE update: 6 hours ago

TLE from 6 hours ago
0 GEESAT 1-04
1 52788U 22058D   25347.04241760  .00007135  00000-0  63011-3 0  9992
2 52788  50.0045 347.4064 0002704  46.0132 314.1035 14.97246375192268
Epoch: 2025-12-13T01:01Z
TLE epoch observation values (Epoch: 2025-12-13T01:01:04.880Z)
Latitude
-0.00001°
Longitude
-109.83931°
Altitude
574.649 km
Speed
7.575 km/s
True Right ascension
23h 09m 37s
True Declination
0° 00' 00"
Sunlit
Object was in daylight at epoch
Visualization orbit readout
Latitude
Unknown
Longitude
Unknown
Altitude
Unknown
Speed
Unknown
Apparent Right ascension
Unknown
Apparent Declination
Unknown
Sunlit
N/A
Visualization observer readout
Local Sidereal Time
05:21:39
Azimuth
Unknown
Elevation
Unknown
Doppler factor
Unknown
Orbital elements
Apogee altitude
578.052 km
Perigee altitude
574.291 km
Semi-major axis
6,954.308 km
Eccentricity
0.00027
Inclination
50.0045°
RAAN
347.4064°
Arg. of periapsis
46.0132°
True anomaly
314.08124°
Mean anomaly
314.1035°
Eccentric anomaly
314.09237°
Mean motion
3.7425 °/min
Orbital period
96.19 mins
BSTAR
0.00063011
Loading maneuver chart data...
Computing Atmospheric mass density...
Loading historical data...
Loading historical data...
Loading historical data...
Loading historical data...
Loading historical data...
Loading historical data...
Loading historical data...

Documentation

Showing up to 5 results
|